Weather reports worldwide

Advertisment
Pratica Di Mare, Italy (16245): temperature & dewpoint: 18.04.2018 06:00:00 - 24.04.2018 06:00:00 (CEST)Pratica Di Mare, Italy (16245): wind speed: 18.04.2018 06:00:00 - 24.04.2018 06:00:00 (CEST)Pratica Di Mare, Italy (16245): wind direction: 18.04.2018 06:00:00 - 24.04.2018 06:00:00 (CEST)Pratica Di Mare, Italy (16245): reduced air pressure: 18.04.2018 06:00:00 - 24.04.2018 06:00:00 (CEST)Pratica Di Mare, Italy (16245): visibility: 18.04.2018 06:00:00 - 24.04.2018 06:00:00 (CEST)
Date & Time tt [°C] td [°C] ff [km/h] ff [kn] dd ppp [hPa] vv [km]
24.04.2018 06:00:00 15,0 14,0 5 3 ESE - 4,0
24.04.2018 05:00:00 13,6 12,8 8 4 ESE 1018,4 5
24.04.2018 04:00:00 - - - - - - -
24.04.2018 03:00:00 14,0 13,0 4 2 ENE - 10
24.04.2018 02:00:00 13,8 13,0 2 1 E 1018,4 10
24.04.2018 01:00:00 14,0 13,0 4 2 ENE - 10
24.04.2018 00:00:00 15,0 14,0 4 2 N - 10
23.04.2018 23:00:00 15,0 14,4 4 2 NW 1018,2 12
23.04.2018 22:00:00 16,0 16,0 4 2 NNW - 10
23.04.2018 21:00:00 18,0 18,0 5 3 NW - 10
23.04.2018 20:00:00 18,6 17,4 9 5 W 1017,6 20
23.04.2018 19:00:00 20,0 18,0 13 7 W - 10
23.04.2018 18:00:00 22,0 17,0 13 7 W - 10
23.04.2018 17:00:00 22,0 15,1 13 7 WNW 1017,7 20
23.04.2018 16:00:00 22,0 18,0 15 8 W - 10
23.04.2018 15:00:00 22,0 19,0 18 10 W - 10
23.04.2018 14:00:00 21,4 18,4 18 10 W 1019,0 10
23.04.2018 13:00:00 21,0 17,0 16 9 W - 10
23.04.2018 12:00:00 20,0 17,0 11 6 WSW - 10
23.04.2018 11:00:00 18,8 18,2 13 7 SW 1019,4 9
23.04.2018 10:00:00 16,0 16,0 4 2 - - 7
23.04.2018 09:00:00 15,0 15,0 2 1 E - 5
23.04.2018 08:00:00 15,0 14,8 9 5 NNE 1018,7 0,2
23.04.2018 07:00:00 14,0 14,0 5 3 N - 1,2
23.04.2018 06:00:00 15,0 15,0 8 4 NNE - 0,1
23.04.2018 05:00:00 14,6 14,0 8 4 NNE 1018,7 6
23.04.2018 04:00:00 14,0 14,0 5 3 NE - 7
23.04.2018 03:00:00 14,0 13,0 8 4 N - 10
23.04.2018 02:00:00 13,8 13,3 5 3 N 1018,9 10
23.04.2018 01:00:00 14,0 13,0 5 3 N - 10
23.04.2018 00:00:00 14,0 14,0 5 3 NNE - 10
22.04.2018 23:00:00 14,4 13,6 8 4 NNE 1018,8 15
22.04.2018 22:00:00 15,0 15,0 4 2 N - 10
22.04.2018 21:00:00 17,0 16,0 4 2 NNE - 10
22.04.2018 20:00:00 18,8 16,4 8 4 WSW 1017,8 15
22.04.2018 19:00:00 20,0 17,0 11 6 W - 10
22.04.2018 18:00:00 20,0 16,0 13 7 W - 10
22.04.2018 17:00:00 21,2 17,6 13 7 W 1017,9 15
22.04.2018 16:00:00 22,0 17,0 15 8 WSW - 10
22.04.2018 15:00:00 21,0 18,0 13 7 SW - 10
22.04.2018 14:00:00 20,4 18,0 11 6 SW 1018,9 12
22.04.2018 13:00:00 20,0 18,0 9 5 WSW - 10
22.04.2018 12:00:00 20,0 18,0 9 5 SW - 10
22.04.2018 11:00:00 20,0 18,1 13 7 SSW 1019,2 10
22.04.2018 10:00:00 19,0 18,0 8 4 SSE - 6
22.04.2018 09:00:00 17,0 16,0 9 5 ESE - 5
22.04.2018 08:00:00 16,0 15,2 13 7 E 1019,0 5
22.04.2018 07:00:00 15,0 14,0 8 4 E - 1,5
22.04.2018 06:00:00 15,0 14,0 8 4 E - 0,7
22.04.2018 05:00:00 15,4 14,4 9 5 E 1019,0 5
22.04.2018 04:00:00 16,0 14,0 0 0 N - 10
22.04.2018 03:00:00 15,0 14,0 4 2 E - 10
22.04.2018 02:00:00 15,0 14,2 4 2 E 1019,0 10
22.04.2018 01:00:00 16,0 15,0 2 1 ESE - 10
22.04.2018 00:00:00 16,0 15,0 0 0 N - 10
21.04.2018 23:00:00 16,4 15,4 5 3 NNE 1019,9 10
21.04.2018 22:00:00 17,0 16,0 2 1 N - 10
21.04.2018 21:00:00 18,0 17,0 2 1 WSW - 10
21.04.2018 20:00:00 19,0 18,2 5 3 S 1018,4 20
21.04.2018 19:00:00 20,0 19,0 9 5 S - 10
21.04.2018 18:00:00 21,0 18,0 9 5 S - 10
21.04.2018 17:00:00 21,8 19,2 11 6 SSW 1018,6 20
21.04.2018 16:00:00 21,0 20,0 15 8 S - 10
21.04.2018 15:00:00 23,0 19,0 16 9 S - 10
21.04.2018 14:00:00 22,8 18,6 15 8 S 1019,1 20
21.04.2018 13:00:00 23,0 18,0 15 8 S - 10
21.04.2018 12:00:00 23,0 16,0 13 7 S - 10
21.04.2018 11:00:00 22,4 16,7 11 6 S 1019,0 20
21.04.2018 10:00:00 22,0 15,0 11 6 ESE - 10
21.04.2018 09:00:00 20,0 14,0 8 4 SE - 10
21.04.2018 08:00:00 17,4 15,4 8 4 E 1018,4 10
21.04.2018 07:00:00 14,0 13,0 8 4 E - 10
21.04.2018 06:00:00 12,0 12,0 4 2 ENE - 10
21.04.2018 05:00:00 13,0 12,4 4 2 NE 1018,2 12
21.04.2018 04:00:00 14,0 13,0 5 3 ENE - 10
21.04.2018 03:00:00 14,0 13,0 5 3 NE - 10
21.04.2018 02:00:00 15,0 13,9 5 3 ESE 1019,2 12
21.04.2018 01:00:00 15,0 14,0 2 1 E - 10
21.04.2018 00:00:00 15,0 14,0 4 2 E - 10
20.04.2018 23:00:00 15,0 13,7 4 2 E 1019,2 12
20.04.2018 22:00:00 15,0 12,0 2 1 ENE - 10
20.04.2018 21:00:00 18,0 15,0 4 2 E - 10
20.04.2018 20:00:00 19,0 17,7 8 4 WNW 1018,6 10
20.04.2018 19:00:00 21,0 15,0 9 5 WNW - 10
20.04.2018 18:00:00 21,0 18,0 16 9 WNW - 10
20.04.2018 17:00:00 22,6 16,4 13 7 W 1019,1 20
20.04.2018 16:00:00 23,0 13,0 13 7 WSW - 10
20.04.2018 15:00:00 23,0 14,0 11 6 WSW - 10
20.04.2018 14:00:00 22,6 11,7 13 7 SW 1020,6 20
20.04.2018 13:00:00 22,0 11,0 11 6 WSW - 10
20.04.2018 12:00:00 22,0 11,0 9 5 SSW - 10
20.04.2018 11:00:00 22,6 12,8 8 4 S 1021,0 20
20.04.2018 10:00:00 21,0 15,0 4 2 E - 10
20.04.2018 09:00:00 18,0 15,0 8 4 NNE - 10
20.04.2018 08:00:00 15,8 14,2 11 6 NE 1021,0 12
20.04.2018 07:00:00 14,0 13,0 13 7 NE - 10
20.04.2018 06:00:00 15,0 13,0 15 8 NNE - 10
20.04.2018 05:00:00 14,8 13,2 15 8 NNE 1020,9 12
20.04.2018 04:00:00 15,0 13,0 11 6 NNE - 10
20.04.2018 03:00:00 13,0 12,0 13 7 NNE - 10
20.04.2018 02:00:00 13,8 13,0 2 1 N 1021,7 10
20.04.2018 01:00:00 14,0 13,0 5 3 N - 10
20.04.2018 00:00:00 15,0 14,0 4 2 NE - 10
19.04.2018 23:00:00 16,4 14,8 4 2 N 1022,4 12
19.04.2018 22:00:00 18,0 15,0 4 2 SSW - 10
19.04.2018 21:00:00 18,0 15,0 4 2 N - 10
19.04.2018 20:00:00 19,4 13,4 9 5 NW 1022,7 12
19.04.2018 19:00:00 22,0 16,0 13 7 WNW - 10
19.04.2018 18:00:00 22,0 14,0 18 10 WNW - 10
19.04.2018 17:00:00 22,2 14,1 24 13 NW 1022,8 15
19.04.2018 16:00:00 23,0 16,0 24 13 W - 10
19.04.2018 15:00:00 23,0 14,0 22 12 W - 10
19.04.2018 14:00:00 23,0 9,4 18 10 W 1024,0 15
19.04.2018 13:00:00 22,0 17,0 16 9 WSW - 10
19.04.2018 12:00:00 22,0 11,0 8 4 SW - 10
19.04.2018 11:00:00 22,0 13,9 4 2 W 1024,5 15
19.04.2018 10:00:00 20,0 15,0 8 4 N - 10
19.04.2018 09:00:00 19,0 15,0 15 8 NNE - 10
19.04.2018 08:00:00 16,2 13,5 13 7 NE 1023,7 15
19.04.2018 07:00:00 16,0 13,0 18 10 NNE - 10
19.04.2018 06:00:00 15,0 14,0 15 8 NNE - 10
19.04.2018 05:00:00 15,0 14,2 15 8 NNE 1019,6 12
19.04.2018 04:00:00 15,0 14,0 13 7 NNE - 10
19.04.2018 03:00:00 15,0 14,0 11 6 NNE - 10
19.04.2018 02:00:00 15,2 12,5 11 6 NNE 1023,8 12
19.04.2018 01:00:00 15,0 14,0 15 8 NNE - 10
19.04.2018 00:00:00 14,0 13,0 4 2 N - 10
18.04.2018 23:00:00 14,6 13,7 5 3 NE 1023,9 12
18.04.2018 22:00:00 15,0 14,0 4 2 ENE - 10
18.04.2018 21:00:00 17,0 14,0 4 2 E - 10
18.04.2018 20:00:00 18,0 16,3 5 3 WNW 1023,0 12
18.04.2018 19:00:00 19,0 17,0 5 3 SSW - 10
18.04.2018 18:00:00 20,0 17,0 9 5 WNW - 10
18.04.2018 17:00:00 20,0 16,4 5 3 WSW 1022,5 12
18.04.2018 16:00:00 21,0 18,0 5 3 SSW - 10
18.04.2018 15:00:00 22,0 16,0 11 6 SW - 10
18.04.2018 14:00:00 23,6 12,0 9 5 NE 1023,5 15
18.04.2018 13:00:00 22,0 14,0 18 10 NNE - 10
18.04.2018 12:00:00 21,0 15,0 16 9 NNE - 10
18.04.2018 11:00:00 20,2 15,8 13 7 NNE 1023,2 15
18.04.2018 10:00:00 17,0 15,0 18 10 NNE - 10
18.04.2018 09:00:00 15,0 14,0 21 11 NNE - 10
18.04.2018 08:00:00 15,0 13,4 16 9 NNE 1022,6 15
18.04.2018 07:00:00 14,0 13,0 2 1 N - 10
18.04.2018 06:00:00 14,0 13,0 9 5 N - 10

tt = temperature
td = dewpoint
ff = wind speed
dd = wind direction
ppp = reduced air pressure
vv = visibility

Next stations